User: anonymous   Login
Location: Olsztyn
(53.7767°N, 20.4765°E)
Time: 19:04:17
(UTC+02:00)
Language:

FENGYUN 1C DEB - Orbit

View from above orbital plane
View from above orbital plane
View from above satellite
View from above satellite

Ground track
Ground track

The orbit is defined by the following mean orbital elements,

1 31081U          26107.78935795 +.00000000 +00000-0 +14528-3 0 00008
2 31081  98.7632 125.2723 0047259 236.5565 301.5887 14.06325854    01
Epoch (UTC): 17 April 2026 18:56:40
Eccentricity: 0.0047259
inclination: 98.7632°
perigee height: 838 km
apogee height: 906 km
right ascension of ascending node: 125.2723°
argument of perigee: 236.5565°
revolutions per day: 14.06325854
mean anomaly at epoch: 301.5887°

The dashed part of the orbit path shows where the satellite is in the earth's shadow,  

DLR